Location: Newark
(50.0306°N, 2.3272°E)
Time: 03:45:59
(UTC+00:00)

A-11 Canister half - Pass Details

Date: 14 December 2019
Orbit: 1525 x 1684 km, 47.3° (Epoch: 19 January)

Event Time Altitude Azimuth Distance (km) Brightness Sun altitude
Rises 05:36:48 0° 236° (SW) 4,902 - -18.9°
Exits shadow 05:38:07 - 235° (SW) 4,498 11.1 -18.7°
Reaches altitude 10° 05:39:59 10° 233° (SW) 3,928 10.8 -18.4°
Maximum altitude 05:49:52 61° 157° (SSE) 1,871 9.6 -16.8°
Drops below altitude 10° 05:59:45 10° 80° (E) 3,934 12.1 -15.3°
Sets 06:02:56 0° 77° (ENE) 4,911 12.7 -14.8°
